owner,sensor,date,latitude,longitude,air_temperature,qcFlag 
COMPS,ioos:station:USF.COMPS:EGK:1,2011-02-01T00:00:00Z,27.6010,-82.7510,18.1,1111122 
COMPS,ioos:station:USF.COMPS:EGK:1,2011-02-01T01:00:00Z,27.6010,-82.7510,17.5,1111122 
COMPS,ioos:station:USF.COMPS:EGK:1,2011-02-01T01:06:00Z,27.6010,-82.7510,17.29,1111122 
COMPS,ioos:station:USF.COMPS:EGK:1,2011-02-01T01:12:00Z,27.6010,-82.7510,17.02,1111122 
COMPS,ioos:station:USF.COMPS:EGK:1,2011-02-01T01:18:00Z,27.6010,-82.7510,17.18,1111122 
COMPS,ioos:station:USF.COMPS:EGK:1,2011-02-01T01:24:00Z,27.6010,-82.7510,17.08,1111122 
COMPS,ioos:station:USF.COMPS:EGK:1,2011-02-01T01:30:00Z,27.6010,-82.7510,17.17,1111122 
COMPS,ioos:station:USF.COMPS:EGK:1,2011-02-01T01:36:00Z,27.6010,-82.7510,17.16,1111122 
COMPS,ioos:station:USF.COMPS:EGK:1,2011-02-01T01:42:00Z,27.6010,-82.7510,17.26,1111122 
COMPS,ioos:station:USF.COMPS:EGK:1,2011-02-01T01:48:00Z,27.6010,-82.7510,16.96,1111122 
COMPS,ioos:station:USF.COMPS:EGK:1,2011-02-01T01:54:00Z,27.6010,-82.7510,16.87,1111122 
COMPS,ioos:station:USF.COMPS:EGK:1,2011-02-01T03:00:00Z,27.6010,-82.7510,17.1,1111122 
COMPS,ioos:station:USF.COMPS:EGK:1,2011-02-01T04:00:00Z,27.6010,-82.7510,16.7,1111122 
COMPS,ioos:station:USF.COMPS:EGK:1,2011-02-01T05:00:00Z,27.6010,-82.7510,16.71,1111122 
COMPS,ioos:station:USF.COMPS:EGK:1,2011-02-01T05:06:00Z,27.6010,-82.7510,16.62,1111122 
COMPS,ioos:station:USF.COMPS:EGK:1,2011-02-01T05:12:00Z,27.6010,-82.7510,16.45,1111122 
COMPS,ioos:station:USF.COMPS:EGK:1,2011-02-01T05:18:00Z,27.6010,-82.7510,16.48,1111122 
COMPS,ioos:station:USF.COMPS:EGK:1,2011-02-01T05:24:00Z,27.6010,-82.7510,16.53,1111122 
COMPS,ioos:station:USF.COMPS:EGK:1,2011-02-01T05:30:00Z,27.6010,-82.7510,16.43,1111122 
COMPS,ioos:station:USF.COMPS:EGK:1,2011-02-01T05:36:00Z,27.6010,-82.7510,16.3,1111122 
COMPS,ioos:station:USF.COMPS:EGK:1,2011-02-01T05:42:00Z,27.6010,-82.7510,16.43,1111122 
COMPS,ioos:station:USF.COMPS:EGK:1,2011-02-01T05:48:00Z,27.6010,-82.7510,16.68,1111122 
COMPS,ioos:station:USF.COMPS:EGK:1,2011-02-01T05:54:00Z,27.6010,-82.7510,16.78,1111122 
COMPS,ioos:station:USF.COMPS:EGK:1,2011-02-01T06:00:00Z,27.6010,-82.7510,16.8,1111122 
COMPS,ioos:station:USF.COMPS:EGK:1,2011-02-01T07:00:00Z,27.6010,-82.7510,16.4,1111122 
COMPS,ioos:station:USF.COMPS:EGK:1,2011-02-01T07:06:00Z,27.6010,-82.7510,16.1,1111122 
COMPS,ioos:station:USF.COMPS:EGK:1,2011-02-01T07:12:00Z,27.6010,-82.7510,15.62,1111122 
COMPS,ioos:station:USF.COMPS:EGK:1,2011-02-01T07:18:00Z,27.6010,-82.7510,15.62,1111122 
COMPS,ioos:station:USF.COMPS:EGK:1,2011-02-01T07:24:00Z,27.6010,-82.7510,15.58,1111122 
COMPS,ioos:station:USF.COMPS:EGK:1,2011-02-01T07:30:00Z,27.6010,-82.7510,15.81,1111122 
COMPS,ioos:station:USF.COMPS:EGK:1,2011-02-01T07:36:00Z,27.6010,-82.7510,15.89,1111122 
COMPS,ioos:station:USF.COMPS:EGK:1,2011-02-01T07:42:00Z,27.6010,-82.7510,15.89,1111122 
COMPS,ioos:station:USF.COMPS:EGK:1,2011-02-01T07:48:00Z,27.6010,-82.7510,15.89,1111122 
COMPS,ioos:station:USF.COMPS:EGK:1,2011-02-01T07:54:00Z,27.6010,-82.7510,16.06,1111122 
COMPS,ioos:station:USF.COMPS:EGK:1,2011-02-01T08:00:00Z,27.6010,-82.7510,16.1,1111122 
COMPS,ioos:station:USF.COMPS:EGK:1,2011-02-01T09:00:00Z,27.6010,-82.7510,15.6,1111122 
COMPS,ioos:station:USF.COMPS:EGK:1,2011-02-01T10:00:00Z,27.6010,-82.7510,15.4,1111122 
COMPS,ioos:station:USF.COMPS:EGK:1,2011-02-01T11:00:00Z,27.6010,-82.7510,15.9,1111122 
COMPS,ioos:station:USF.COMPS:EGK:1,2011-02-01T11:06:00Z,27.6010,-82.7510,15.87,1111122 
COMPS,ioos:station:USF.COMPS:EGK:1,2011-02-01T11:12:00Z,27.6010,-82.7510,15.89,1111122 
COMPS,ioos:station:USF.COMPS:EGK:1,2011-02-01T11:18:00Z,27.6010,-82.7510,15.92,1111122 
COMPS,ioos:station:USF.COMPS:EGK:1,2011-02-01T11:24:00Z,27.6010,-82.7510,15.88,1111122 
COMPS,ioos:station:USF.COMPS:EGK:1,2011-02-01T11:30:00Z,27.6010,-82.7510,15.78,1111122 
COMPS,ioos:station:USF.COMPS:EGK:1,2011-02-01T11:36:00Z,27.6010,-82.7510,15.76,1111122 
COMPS,ioos:station:USF.COMPS:EGK:1,2011-02-01T11:42:00Z,27.6010,-82.7510,15.76,1111122 
COMPS,ioos:station:USF.COMPS:EGK:1,2011-02-01T11:48:00Z,27.6010,-82.7510,15.89,1111122 
COMPS,ioos:station:USF.COMPS:EGK:1,2011-02-01T11:54:00Z,27.6010,-82.7510,15.86,1111122 
COMPS,ioos:station:USF.COMPS:EGK:1,2011-02-01T12:00:00Z,27.6010,-82.7510,15.9,1111122 
COMPS,ioos:station:USF.COMPS:EGK:1,2011-02-01T13:00:00Z,27.6010,-82.7510,16.0,1111122 
COMPS,ioos:station:USF.COMPS:EGK:1,2011-02-01T14:00:00Z,27.6010,-82.7510,16.5,1111122 
COMPS,ioos:station:USF.COMPS:EGK:1,2011-02-01T15:00:00Z,27.6010,-82.7510,17.4,1111122 
COMPS,ioos:station:USF.COMPS:EGK:1,2011-02-01T15:06:00Z,27.6010,-82.7510,17.47,1111122 
COMPS,ioos:station:USF.COMPS:EGK:1,2011-02-01T15:12:00Z,27.6010,-82.7510,17.57,1111122 
COMPS,ioos:station:USF.COMPS:EGK:1,2011-02-01T15:18:00Z,27.6010,-82.7510,17.75,1111122 
COMPS,ioos:station:USF.COMPS:EGK:1,2011-02-01T15:24:00Z,27.6010,-82.7510,17.77,1111122 
COMPS,ioos:station:USF.COMPS:EGK:1,2011-02-01T15:30:00Z,27.6010,-82.7510,17.82,1111122 
COMPS,ioos:station:USF.COMPS:EGK:1,2011-02-01T15:36:00Z,27.6010,-82.7510,18.14,1111122 
COMPS,ioos:station:USF.COMPS:EGK:1,2011-02-01T15:42:00Z,27.6010,-82.7510,18.84,1111122 
COMPS,ioos:station:USF.COMPS:EGK:1,2011-02-01T15:48:00Z,27.6010,-82.7510,18.99,1111122 
COMPS,ioos:station:USF.COMPS:EGK:1,2011-02-01T15:54:00Z,27.6010,-82.7510,19.03,1111122 
COMPS,ioos:station:USF.COMPS:EGK:1,2011-02-01T16:00:00Z,27.6010,-82.7510,19.0,1111122 
COMPS,ioos:station:USF.COMPS:EGK:1,2011-02-01T18:00:00Z,27.6010,-82.7510,20.9,1111122 
COMPS,ioos:station:USF.COMPS:EGK:1,2011-02-01T18:06:00Z,27.6010,-82.7510,21.04,1111122 
COMPS,ioos:station:USF.COMPS:EGK:1,2011-02-01T18:12:00Z,27.6010,-82.7510,20.97,1111122 
COMPS,ioos:station:USF.COMPS:EGK:1,2011-02-01T18:18:00Z,27.6010,-82.7510,21.12,1111122 
COMPS,ioos:station:USF.COMPS:EGK:1,2011-02-01T18:24:00Z,27.6010,-82.7510,20.99,1111122 
COMPS,ioos:station:USF.COMPS:EGK:1,2011-02-01T18:30:00Z,27.6010,-82.7510,20.86,1111122 
COMPS,ioos:station:USF.COMPS:EGK:1,2011-02-01T18:36:00Z,27.6010,-82.7510,21.06,1111122 
COMPS,ioos:station:USF.COMPS:EGK:1,2011-02-01T18:42:00Z,27.6010,-82.7510,21.21,1111122 
COMPS,ioos:station:USF.COMPS:EGK:1,2011-02-01T18:48:00Z,27.6010,-82.7510,21.16,1111122 
COMPS,ioos:station:USF.COMPS:EGK:1,2011-02-01T18:54:00Z,27.6010,-82.7510,21.35,1111122 
COMPS,ioos:station:USF.COMPS:EGK:1,2011-02-01T19:00:00Z,27.6010,-82.7510,21.4,1111122 
COMPS,ioos:station:USF.COMPS:EGK:1,2011-02-01T22:00:00Z,27.6010,-82.7510,19.6,1111122 
COMPS,ioos:station:USF.COMPS:EGK:1,2011-02-01T22:06:00Z,27.6010,-82.7510,19.45,1111122 
COMPS,ioos:station:USF.COMPS:EGK:1,2011-02-01T22:12:00Z,27.6010,-82.7510,19.27,1111122 
COMPS,ioos:station:USF.COMPS:EGK:1,2011-02-01T22:18:00Z,27.6010,-82.7510,19.2,1111122 
COMPS,ioos:station:USF.COMPS:EGK:1,2011-02-01T22:24:00Z,27.6010,-82.7510,19.25,1111122 
COMPS,ioos:station:USF.COMPS:EGK:1,2011-02-01T22:30:00Z,27.6010,-82.7510,19.19,1111122 
COMPS,ioos:station:USF.COMPS:EGK:1,2011-02-01T22:36:00Z,27.6010,-82.7510,19.08,1111122 
COMPS,ioos:station:USF.COMPS:EGK:1,2011-02-01T22:42:00Z,27.6010,-82.7510,18.84,1111122 
COMPS,ioos:station:USF.COMPS:EGK:1,2011-02-01T22:48:00Z,27.6010,-82.7510,18.77,1111122 
COMPS,ioos:station:USF.COMPS:EGK:1,2011-02-01T22:54:00Z,27.6010,-82.7510,18.71,1111122 
COMPS,ioos:station:USF.COMPS:EGK:1,2011-02-01T23:00:00Z,27.6010,-82.7510,18.7,1111122 
COMPS,ioos:station:USF.COMPS:EGK:1,2011-02-02T00:00:00Z,27.6010,-82.7510,18.3,1111122 
COMPS,ioos:station:USF.COMPS:EGK:1,2011-02-02T01:00:00Z,27.6010,-82.7510,18.8,1111122 
COMPS,ioos:station:USF.COMPS:EGK:1,2011-02-02T01:06:00Z,27.6010,-82.7510,18.84,1111122 
COMPS,ioos:station:USF.COMPS:EGK:1,2011-02-02T01:12:00Z,27.6010,-82.7510,18.76,1111122 
COMPS,ioos:station:USF.COMPS:EGK:1,2011-02-02T01:18:00Z,27.6010,-82.7510,18.58,1111122 
COMPS,ioos:station:USF.COMPS:EGK:1,2011-02-02T01:24:00Z,27.6010,-82.7510,18.36,1111122 
COMPS,ioos:station:USF.COMPS:EGK:1,2011-02-02T01:30:00Z,27.6010,-82.7510,18.16,1111122 
COMPS,ioos:station:USF.COMPS:EGK:1,2011-02-02T01:36:00Z,27.6010,-82.7510,18.04,1111122 
COMPS,ioos:station:USF.COMPS:EGK:1,2011-02-02T01:42:00Z,27.6010,-82.7510,17.91,1111122 
COMPS,ioos:station:USF.COMPS:EGK:1,2011-02-02T01:48:00Z,27.6010,-82.7510,17.83,1111122 
COMPS,ioos:station:USF.COMPS:EGK:1,2011-02-02T01:54:00Z,27.6010,-82.7510,17.73,1111122 
COMPS,ioos:station:USF.COMPS:EGK:1,2011-02-02T02:00:00Z,27.6010,-82.7510,17.7,1111122 
COMPS,ioos:station:USF.COMPS:EGK:1,2011-02-02T03:00:00Z,27.6010,-82.7510,18.1,1111122 
COMPS,ioos:station:USF.COMPS:EGK:1,2011-02-02T04:00:00Z,27.6010,-82.7510,18.4,1111122 
COMPS,ioos:station:USF.COMPS:EGK:1,2011-02-02T05:00:00Z,27.6010,-82.7510,19.0,1111122 
COMPS,ioos:station:USF.COMPS:EGK:1,2011-02-02T05:06:00Z,27.6010,-82.7510,18.7,1111122 
COMPS,ioos:station:USF.COMPS:EGK:1,2011-02-02T05:12:00Z,27.6010,-82.7510,18.49,1111122 
COMPS,ioos:station:USF.COMPS:EGK:1,2011-02-02T05:18:00Z,27.6010,-82.7510,18.35,1111122 
COMPS,ioos:station:USF.COMPS:EGK:1,2011-02-02T05:24:00Z,27.6010,-82.7510,18.38,1111122 
COMPS,ioos:station:USF.COMPS:EGK:1,2011-02-02T05:30:00Z,27.6010,-82.7510,18.16,1111122 
COMPS,ioos:station:USF.COMPS:EGK:1,2011-02-02T05:36:00Z,27.6010,-82.7510,18.02,1111122 
COMPS,ioos:station:USF.COMPS:EGK:1,2011-02-02T05:42:00Z,27.6010,-82.7510,18.07,1111122 
COMPS,ioos:station:USF.COMPS:EGK:1,2011-02-02T05:48:00Z,27.6010,-82.7510,18.34,1111122 
COMPS,ioos:station:USF.COMPS:EGK:1,2011-02-02T05:54:00Z,27.6010,-82.7510,18.5,1111122 
COMPS,ioos:station:USF.COMPS:EGK:1,2011-02-02T06:00:00Z,27.6010,-82.7510,18.5,1111122 
COMPS,ioos:station:USF.COMPS:EGK:1,2011-02-02T07:00:00Z,27.6010,-82.7510,19.3,1111122 
COMPS,ioos:station:USF.COMPS:EGK:1,2011-02-02T08:00:00Z,27.6010,-82.7510,19.3,1111122 
COMPS,ioos:station:USF.COMPS:EGK:1,2011-02-02T09:00:00Z,27.6010,-82.7510,19.5,1111122 
COMPS,ioos:station:USF.COMPS:EGK:1,2011-02-02T09:06:00Z,27.6010,-82.7510,19.34,1111122 
COMPS,ioos:station:USF.COMPS:EGK:1,2011-02-02T09:12:00Z,27.6010,-82.7510,19.36,1111122 
COMPS,ioos:station:USF.COMPS:EGK:1,2011-02-02T09:18:00Z,27.6010,-82.7510,19.45,1111122 
COMPS,ioos:station:USF.COMPS:EGK:1,2011-02-02T09:24:00Z,27.6010,-82.7510,19.26,1111122 
COMPS,ioos:station:USF.COMPS:EGK:1,2011-02-02T09:30:00Z,27.6010,-82.7510,19.2,1111122 
COMPS,ioos:station:USF.COMPS:EGK:1,2011-02-02T09:36:00Z,27.6010,-82.7510,19.22,1111122 
COMPS,ioos:station:USF.COMPS:EGK:1,2011-02-02T09:42:00Z,27.6010,-82.7510,19.29,1111122 
COMPS,ioos:station:USF.COMPS:EGK:1,2011-02-02T09:48:00Z,27.6010,-82.7510,19.17,1111122 
COMPS,ioos:station:USF.COMPS:EGK:1,2011-02-02T09:54:00Z,27.6010,-82.7510,19.01,1111122 
COMPS,ioos:station:USF.COMPS:EGK:1,2011-02-02T10:00:00Z,27.6010,-82.7510,19.0,1111122 
COMPS,ioos:station:USF.COMPS:EGK:1,2011-02-02T11:00:00Z,27.6010,-82.7510,18.4,1111122 
COMPS,ioos:station:USF.COMPS:EGK:1,2011-02-02T12:00:00Z,27.6010,-82.7510,18.6,1111122 
COMPS,ioos:station:USF.COMPS:EGK:1,2011-02-02T12:06:00Z,27.6010,-82.7510,18.35,1111122 
COMPS,ioos:station:USF.COMPS:EGK:1,2011-02-02T12:12:00Z,27.6010,-82.7510,18.21,1111122 
COMPS,ioos:station:USF.COMPS:EGK:1,2011-02-02T12:18:00Z,27.6010,-82.7510,18.32,1111122 
COMPS,ioos:station:USF.COMPS:EGK:1,2011-02-02T12:24:00Z,27.6010,-82.7510,18.06,1111122 
COMPS,ioos:station:USF.COMPS:EGK:1,2011-02-02T12:30:00Z,27.6010,-82.7510,17.91,1111122 
COMPS,ioos:station:USF.COMPS:EGK:1,2011-02-02T12:36:00Z,27.6010,-82.7510,17.79,1111122 
COMPS,ioos:station:USF.COMPS:EGK:1,2011-02-02T12:42:00Z,27.6010,-82.7510,17.84,1111122 
COMPS,ioos:station:USF.COMPS:EGK:1,2011-02-02T12:48:00Z,27.6010,-82.7510,17.72,1111122 
COMPS,ioos:station:USF.COMPS:EGK:1,2011-02-02T12:54:00Z,27.6010,-82.7510,17.77,1111122 
COMPS,ioos:station:USF.COMPS:EGK:1,2011-02-02T13:00:00Z,27.6010,-82.7510,17.8,1111122 
COMPS,ioos:station:USF.COMPS:EGK:1,2011-02-02T14:00:00Z,27.6010,-82.7510,17.6,1111122 
COMPS,ioos:station:USF.COMPS:EGK:1,2011-02-02T15:00:00Z,27.6010,-82.7510,17.9,1111122 
COMPS,ioos:station:USF.COMPS:EGK:1,2011-02-02T16:00:00Z,27.6010,-82.7510,17.8,1111122 
COMPS,ioos:station:USF.COMPS:EGK:1,2011-02-02T16:06:00Z,27.6010,-82.7510,18.02,1111122 
COMPS,ioos:station:USF.COMPS:EGK:1,2011-02-02T16:12:00Z,27.6010,-82.7510,18.12,1111122 
COMPS,ioos:station:USF.COMPS:EGK:1,2011-02-02T16:18:00Z,27.6010,-82.7510,17.91,1111122 
COMPS,ioos:station:USF.COMPS:EGK:1,2011-02-02T16:24:00Z,27.6010,-82.7510,17.91,1111122 
COMPS,ioos:station:USF.COMPS:EGK:1,2011-02-02T16:30:00Z,27.6010,-82.7510,17.91,1111122 
COMPS,ioos:station:USF.COMPS:EGK:1,2011-02-02T16:36:00Z,27.6010,-82.7510,18.04,1111122 
COMPS,ioos:station:USF.COMPS:EGK:1,2011-02-02T16:42:00Z,27.6010,-82.7510,17.87,1111122 
COMPS,ioos:station:USF.COMPS:EGK:1,2011-02-02T16:48:00Z,27.6010,-82.7510,17.91,1111122 
COMPS,ioos:station:USF.COMPS:EGK:1,2011-02-02T16:54:00Z,27.6010,-82.7510,18.11,1111122 
COMPS,ioos:station:USF.COMPS:EGK:1,2011-02-02T17:00:00Z,27.6010,-82.7510,18.1,1111122 
COMPS,ioos:station:USF.COMPS:EGK:1,2011-02-02T18:00:00Z,27.6010,-82.7510,19.3,1111122 
COMPS,ioos:station:USF.COMPS:EGK:1,2011-02-02T19:00:00Z,27.6010,-82.7510,19.5,1111122 
COMPS,ioos:station:USF.COMPS:EGK:1,2011-02-02T20:00:00Z,27.6010,-82.7510,18.8,1111122 
COMPS,ioos:station:USF.COMPS:EGK:1,2011-02-02T21:00:00Z,27.6010,-82.7510,18.4,1111122 
COMPS,ioos:station:USF.COMPS:EGK:1,2011-02-02T21:06:00Z,27.6010,-82.7510,18.3,1111122 
COMPS,ioos:station:USF.COMPS:EGK:1,2011-02-02T21:12:00Z,27.6010,-82.7510,18.24,1111122 
COMPS,ioos:station:USF.COMPS:EGK:1,2011-02-02T21:18:00Z,27.6010,-82.7510,18.36,1111122 
COMPS,ioos:station:USF.COMPS:EGK:1,2011-02-02T21:24:00Z,27.6010,-82.7510,18.38,1111122 
COMPS,ioos:station:USF.COMPS:EGK:1,2011-02-02T21:30:00Z,27.6010,-82.7510,18.44,1111122 
COMPS,ioos:station:USF.COMPS:EGK:1,2011-02-02T21:36:00Z,27.6010,-82.7510,18.59,1111122 
COMPS,ioos:station:USF.COMPS:EGK:1,2011-02-02T21:42:00Z,27.6010,-82.7510,18.51,1111122 
COMPS,ioos:station:USF.COMPS:EGK:1,2011-02-02T21:48:00Z,27.6010,-82.7510,18.37,1111122 
COMPS,ioos:station:USF.COMPS:EGK:1,2011-02-02T21:54:00Z,27.6010,-82.7510,18.39,1111122 
COMPS,ioos:station:USF.COMPS:EGK:1,2011-02-02T23:00:00Z,27.6010,-82.7510,18.8,1111122 
COMPS,ioos:station:USF.COMPS:EGK:1,2011-02-03T00:00:00Z,27.6010,-82.7510,18.6,1111122 
COMPS,ioos:station:USF.COMPS:EGK:1,2011-02-03T01:00:00Z,27.6010,-82.7510,18.4,1111122 
COMPS,ioos:station:USF.COMPS:EGK:1,2011-02-03T02:00:00Z,27.6010,-82.7510,18.1,1111122 
COMPS,ioos:station:USF.COMPS:EGK:1,2011-02-03T02:06:00Z,27.6010,-82.7510,18.02,1111122 
COMPS,ioos:station:USF.COMPS:EGK:1,2011-02-03T02:12:00Z,27.6010,-82.7510,17.77,1111122 
COMPS,ioos:station:USF.COMPS:EGK:1,2011-02-03T02:18:00Z,27.6010,-82.7510,17.77,1111122 
COMPS,ioos:station:USF.COMPS:EGK:1,2011-02-03T02:24:00Z,27.6010,-82.7510,17.8,1111122 
COMPS,ioos:station:USF.COMPS:EGK:1,2011-02-03T02:30:00Z,27.6010,-82.7510,17.83,1111122 
COMPS,ioos:station:USF.COMPS:EGK:1,2011-02-03T02:36:00Z,27.6010,-82.7510,17.64,1111122 
COMPS,ioos:station:USF.COMPS:EGK:1,2011-02-03T02:42:00Z,27.6010,-82.7510,17.77,1111122 
COMPS,ioos:station:USF.COMPS:EGK:1,2011-02-03T02:48:00Z,27.6010,-82.7510,17.79,1111122 
COMPS,ioos:station:USF.COMPS:EGK:1,2011-02-03T02:54:00Z,27.6010,-82.7510,17.89,1111122 
COMPS,ioos:station:USF.COMPS:EGK:1,2011-02-03T03:00:00Z,27.6010,-82.7510,17.9,1111122 
COMPS,ioos:station:USF.COMPS:EGK:1,2011-02-03T04:00:00Z,27.6010,-82.7510,17.5,1111122 
COMPS,ioos:station:USF.COMPS:EGK:1,2011-02-03T05:00:00Z,27.6010,-82.7510,17.1,1111122 
COMPS,ioos:station:USF.COMPS:EGK:1,2011-02-03T05:06:00Z,27.6010,-82.7510,17.08,1111122 
COMPS,ioos:station:USF.COMPS:EGK:1,2011-02-03T05:12:00Z,27.6010,-82.7510,16.97,1111122 
COMPS,ioos:station:USF.COMPS:EGK:1,2011-02-03T05:18:00Z,27.6010,-82.7510,16.91,1111122 
COMPS,ioos:station:USF.COMPS:EGK:1,2011-02-03T05:24:00Z,27.6010,-82.7510,16.89,1111122 
COMPS,ioos:station:USF.COMPS:EGK:1,2011-02-03T05:30:00Z,27.6010,-82.7510,17.1,1111122 
COMPS,ioos:station:USF.COMPS:EGK:1,2011-02-03T05:36:00Z,27.6010,-82.7510,16.87,1111122 
COMPS,ioos:station:USF.COMPS:EGK:1,2011-02-03T05:42:00Z,27.6010,-82.7510,16.96,1111122 
COMPS,ioos:station:USF.COMPS:EGK:1,2011-02-03T05:48:00Z,27.6010,-82.7510,16.94,1111122 
COMPS,ioos:station:USF.COMPS:EGK:1,2011-02-03T05:54:00Z,27.6010,-82.7510,17.09,1111122 
COMPS,ioos:station:USF.COMPS:EGK:1,2011-02-03T06:00:00Z,27.6010,-82.7510,17.1,1111122 
COMPS,ioos:station:USF.COMPS:EGK:1,2011-02-03T09:00:00Z,27.6010,-82.7510,16.6,1111122 
COMPS,ioos:station:USF.COMPS:EGK:1,2011-02-03T10:00:00Z,27.6010,-82.7510,16.1,1111122 
COMPS,ioos:station:USF.COMPS:EGK:1,2011-02-03T10:06:00Z,27.6010,-82.7510,16.35,1111122 
COMPS,ioos:station:USF.COMPS:EGK:1,2011-02-03T10:12:00Z,27.6010,-82.7510,16.67,1111122 
COMPS,ioos:station:USF.COMPS:EGK:1,2011-02-03T10:18:00Z,27.6010,-82.7510,16.85,1111122 
COMPS,ioos:station:USF.COMPS:EGK:1,2011-02-03T10:24:00Z,27.6010,-82.7510,17.21,1111122 
COMPS,ioos:station:USF.COMPS:EGK:1,2011-02-03T10:30:00Z,27.6010,-82.7510,17.51,1111122 
COMPS,ioos:station:USF.COMPS:EGK:1,2011-02-03T10:36:00Z,27.6010,-82.7510,17.66,1111122 
COMPS,ioos:station:USF.COMPS:EGK:1,2011-02-03T10:42:00Z,27.6010,-82.7510,17.68,1111122 
COMPS,ioos:station:USF.COMPS:EGK:1,2011-02-03T10:48:00Z,27.6010,-82.7510,17.52,1111122 
COMPS,ioos:station:USF.COMPS:EGK:1,2011-02-03T10:54:00Z,27.6010,-82.7510,17.46,1111122 
COMPS,ioos:station:USF.COMPS:EGK:1,2011-02-03T11:00:00Z,27.6010,-82.7510,17.5,1111122 
COMPS,ioos:station:USF.COMPS:EGK:1,2011-02-03T12:00:00Z,27.6010,-82.7510,17.9,1111122 
COMPS,ioos:station:USF.COMPS:EGK:1,2011-02-03T13:00:00Z,27.6010,-82.7510,18.1,1111122 
COMPS,ioos:station:USF.COMPS:EGK:1,2011-02-03T14:00:00Z,27.6010,-82.7510,18.14,1111122 
COMPS,ioos:station:USF.COMPS:EGK:1,2011-02-03T14:06:00Z,27.6010,-82.7510,18.38,1111122 
COMPS,ioos:station:USF.COMPS:EGK:1,2011-02-03T14:12:00Z,27.6010,-82.7510,18.33,1111122 
COMPS,ioos:station:USF.COMPS:EGK:1,2011-02-03T14:18:00Z,27.6010,-82.7510,18.25,1111122 
COMPS,ioos:station:USF.COMPS:EGK:1,2011-02-03T14:24:00Z,27.6010,-82.7510,18.15,1111122 
COMPS,ioos:station:USF.COMPS:EGK:1,2011-02-03T14:30:00Z,27.6010,-82.7510,18.31,1111122 
COMPS,ioos:station:USF.COMPS:EGK:1,2011-02-03T14:36:00Z,27.6010,-82.7510,18.33,1111122 
COMPS,ioos:station:USF.COMPS:EGK:1,2011-02-03T14:42:00Z,27.6010,-82.7510,18.65,1111122 
COMPS,ioos:station:USF.COMPS:EGK:1,2011-02-03T14:48:00Z,27.6010,-82.7510,18.82,1111122 
COMPS,ioos:station:USF.COMPS:EGK:1,2011-02-03T14:54:00Z,27.6010,-82.7510,18.67,1111122 
COMPS,ioos:station:USF.COMPS:EGK:1,2011-02-03T15:00:00Z,27.6010,-82.7510,18.7,1111122 
COMPS,ioos:station:USF.COMPS:EGK:1,2011-02-03T16:00:00Z,27.6010,-82.7510,18.8,1111122 
COMPS,ioos:station:USF.COMPS:EGK:1,2011-02-03T16:06:00Z,27.6010,-82.7510,18.55,1111122 
COMPS,ioos:station:USF.COMPS:EGK:1,2011-02-03T16:12:00Z,27.6010,-82.7510,18.24,1111122 
COMPS,ioos:station:USF.COMPS:EGK:1,2011-02-03T16:18:00Z,27.6010,-82.7510,18.3,1111122 
COMPS,ioos:station:USF.COMPS:EGK:1,2011-02-03T16:24:00Z,27.6010,-82.7510,18.38,1111122 
COMPS,ioos:station:USF.COMPS:EGK:1,2011-02-03T16:30:00Z,27.6010,-82.7510,18.32,1111122 
COMPS,ioos:station:USF.COMPS:EGK:1,2011-02-03T16:36:00Z,27.6010,-82.7510,18.43,1111122 
COMPS,ioos:station:USF.COMPS:EGK:1,2011-02-03T16:42:00Z,27.6010,-82.7510,18.55,1111122 
COMPS,ioos:station:USF.COMPS:EGK:1,2011-02-03T16:48:00Z,27.6010,-82.7510,18.54,1111122 
COMPS,ioos:station:USF.COMPS:EGK:1,2011-02-03T16:54:00Z,27.6010,-82.7510,18.69,1111122 
COMPS,ioos:station:USF.COMPS:EGK:1,2011-02-03T17:00:00Z,27.6010,-82.7510,18.7,1111122 
COMPS,ioos:station:USF.COMPS:EGK:1,2011-02-03T17:06:00Z,27.6010,-82.7510,18.75,1111122 
COMPS,ioos:station:USF.COMPS:EGK:1,2011-02-03T17:12:00Z,27.6010,-82.7510,18.81,1111122 
COMPS,ioos:station:USF.COMPS:EGK:1,2011-02-03T17:18:00Z,27.6010,-82.7510,18.79,1111122 
COMPS,ioos:station:USF.COMPS:EGK:1,2011-02-03T17:24:00Z,27.6010,-82.7510,18.57,1111122 
COMPS,ioos:station:USF.COMPS:EGK:1,2011-02-03T17:30:00Z,27.6010,-82.7510,18.53,1111122 
COMPS,ioos:station:USF.COMPS:EGK:1,2011-02-03T17:36:00Z,27.6010,-82.7510,17.68,1111122 
COMPS,ioos:station:USF.COMPS:EGK:1,2011-02-03T17:42:00Z,27.6010,-82.7510,17.95,1111122 
COMPS,ioos:station:USF.COMPS:EGK:1,2011-02-03T17:48:00Z,27.6010,-82.7510,18.29,1111122 
COMPS,ioos:station:USF.COMPS:EGK:1,2011-02-03T17:54:00Z,27.6010,-82.7510,17.77,1111122 
COMPS,ioos:station:USF.COMPS:EGK:1,2011-02-03T18:00:00Z,27.6010,-82.7510,17.8,1111122 
COMPS,ioos:station:USF.COMPS:EGK:1,2011-02-03T18:06:00Z,27.6010,-82.7510,17.56,1111122 
COMPS,ioos:station:USF.COMPS:EGK:1,2011-02-03T18:12:00Z,27.6010,-82.7510,17.69,1111122 
COMPS,ioos:station:USF.COMPS:EGK:1,2011-02-03T18:18:00Z,27.6010,-82.7510,17.76,1111122 
COMPS,ioos:station:USF.COMPS:EGK:1,2011-02-03T18:24:00Z,27.6010,-82.7510,18.05,1111122 
COMPS,ioos:station:USF.COMPS:EGK:1,2011-02-03T18:30:00Z,27.6010,-82.7510,17.88,1111122 
COMPS,ioos:station:USF.COMPS:EGK:1,2011-02-03T18:36:00Z,27.6010,-82.7510,18.05,1111122 
COMPS,ioos:station:USF.COMPS:EGK:1,2011-02-03T18:42:00Z,27.6010,-82.7510,18.07,1111122 
COMPS,ioos:station:USF.COMPS:EGK:1,2011-02-03T18:48:00Z,27.6010,-82.7510,18.31,1111122 
COMPS,ioos:station:USF.COMPS:EGK:1,2011-02-03T18:54:00Z,27.6010,-82.7510,18.21,1111122 
COMPS,ioos:station:USF.COMPS:EGK:1,2011-02-03T20:00:00Z,27.6010,-82.7510,17.4,1111122 
COMPS,ioos:station:USF.COMPS:EGK:1,2011-02-03T21:00:00Z,27.6010,-82.7510,17.2,1111122 
COMPS,ioos:station:USF.COMPS:EGK:1,2011-02-03T23:00:00Z,27.6010,-82.7510,17.4,1111122 
COMPS,ioos:station:USF.COMPS:EGK:1,2011-02-03T23:06:00Z,27.6010,-82.7510,17.33,1111122 
COMPS,ioos:station:USF.COMPS:EGK:1,2011-02-03T23:12:00Z,27.6010,-82.7510,17.25,1111122 
COMPS,ioos:station:USF.COMPS:EGK:1,2011-02-03T23:18:00Z,27.6010,-82.7510,17.22,1111122 
COMPS,ioos:station:USF.COMPS:EGK:1,2011-02-03T23:24:00Z,27.6010,-82.7510,17.22,1111122 
COMPS,ioos:station:USF.COMPS:EGK:1,2011-02-03T23:30:00Z,27.6010,-82.7510,17.31,1111122 
COMPS,ioos:station:USF.COMPS:EGK:1,2011-02-03T23:36:00Z,27.6010,-82.7510,17.29,1111122 
COMPS,ioos:station:USF.COMPS:EGK:1,2011-02-03T23:42:00Z,27.6010,-82.7510,17.23,1111122 
COMPS,ioos:station:USF.COMPS:EGK:1,2011-02-03T23:48:00Z,27.6010,-82.7510,17.23,1111122 
COMPS,ioos:station:USF.COMPS:EGK:1,2011-02-03T23:54:00Z,27.6010,-82.7510,17.53,1111122 
COMPS,ioos:station:USF.COMPS:EGK:1,2011-02-04T00:00:00Z,27.6010,-82.7510,17.5,1111122 
COMPS,ioos:station:USF.COMPS:EGK:1,2011-02-04T01:00:00Z,27.6010,-82.7510,19.2,1111122 
COMPS,ioos:station:USF.COMPS:EGK:1,2011-02-04T02:00:00Z,27.6010,-82.7510,19.98,1111122 
COMPS,ioos:station:USF.COMPS:EGK:1,2011-02-04T02:06:00Z,27.6010,-82.7510,19.81,1111122 
COMPS,ioos:station:USF.COMPS:EGK:1,2011-02-04T02:12:00Z,27.6010,-82.7510,19.53,1111122 
COMPS,ioos:station:USF.COMPS:EGK:1,2011-02-04T02:18:00Z,27.6010,-82.7510,19.19,1111122 
COMPS,ioos:station:USF.COMPS:EGK:1,2011-02-04T02:24:00Z,27.6010,-82.7510,18.84,1111122 
COMPS,ioos:station:USF.COMPS:EGK:1,2011-02-04T02:30:00Z,27.6010,-82.7510,18.62,1111122 
COMPS,ioos:station:USF.COMPS:EGK:1,2011-02-04T02:36:00Z,27.6010,-82.7510,18.45,1111122 
COMPS,ioos:station:USF.COMPS:EGK:1,2011-02-04T02:42:00Z,27.6010,-82.7510,18.63,1111122 
COMPS,ioos:station:USF.COMPS:EGK:1,2011-02-04T02:48:00Z,27.6010,-82.7510,18.72,1111122 
COMPS,ioos:station:USF.COMPS:EGK:1,2011-02-04T02:54:00Z,27.6010,-82.7510,18.7,1111122 
COMPS,ioos:station:USF.COMPS:EGK:1,2011-02-04T03:00:00Z,27.6010,-82.7510,18.7,1111122 
COMPS,ioos:station:USF.COMPS:EGK:1,2011-02-04T04:00:00Z,27.6010,-82.7510,18.4,1111122 
COMPS,ioos:station:USF.COMPS:EGK:1,2011-02-04T06:00:00Z,27.6010,-82.7510,17.8,1111122 
COMPS,ioos:station:USF.COMPS:EGK:1,2011-02-04T07:00:00Z,27.6010,-82.7510,18.2,1111122 
COMPS,ioos:station:USF.COMPS:EGK:1,2011-02-04T07:06:00Z,27.6010,-82.7510,17.92,1111122 
COMPS,ioos:station:USF.COMPS:EGK:1,2011-02-04T07:12:00Z,27.6010,-82.7510,18.08,1111122 
COMPS,ioos:station:USF.COMPS:EGK:1,2011-02-04T07:18:00Z,27.6010,-82.7510,18.16,1111122 
COMPS,ioos:station:USF.COMPS:EGK:1,2011-02-04T07:24:00Z,27.6010,-82.7510,17.97,1111122 